Regional Weather Roundup
Issued by NWS

Home | Current Version | Previous Version | Graphics & Text | Print | Product List | Glossary On
Versions: 1 2 3 4 5 6 7 8 9 10 11 12 13 14 15 16 17 18 19 20 21 22 23 24 25 26 27 28 29 30 31 32 33 34 35 36 37 38 39 40 41 42 43 44 45 46 47 48 49 50
000
ASUS43 KLSX 290407
RWRMO

WEATHER SUMMARY FOR MISSOURI
NATIONAL WEATHER SERVICE SPRINGFIELD MO
1100 PM CDT FRI AUG 28 2015

NOTE: "FAIR" INDICATES FEW OR NO CLOUDS BELOW 12,000 FEET WITH NO
       SIGNIFICANT WEATHER AND/OR OBSTRUCTIONS TO VISIBILITY.
       CURRENT SKY AND/OR WEATHER CONDITIONS ARE NOT AVAILABLE FOR
       CHILLICOTHE AND FARMINGTON.

MOZ001>031-035>038-043-044-053-054-290500-
...NORTHERN AND WESTERN MISSOURI...

CITY           SKY/WX    TMP DP  RH WIND       PRES   REMARKS
KANSAS CTY INT CLOUDY    72  68  87 S9        29.93S
KANSAS C DTWN  CLOUDY    73  69  87 S12       29.92S
LEE`S SUMMIT   RAIN      71  68  90 S9        29.94F
ST JOSEPH      MOCLDY    72  68  87 S7        29.92S
CHILLICOTHE      N/A     72  67  84 SE3       29.95S
KIRKSVILLE     CLOUDY    68  65  90 S6        29.99R

$$
MOZ066>068-077>081-088>096-101>105-290500-
...SOUTHWEST MISSOURI...

CITY           SKY/WX    TMP DP  RH WIND       PRES   REMARKS
SPRINGFIELD    PTCLDY    71  61  70 S9        30.01R
JOPLIN         CLEAR     72  64  76 S7        29.98R

$$
MOZ032>034-039>042-045>050-055>058-069>072-290500-
...CENTRAL MISSOURI...

CITY           SKY/WX    TMP DP  RH WIND       PRES   REMARKS
COLUMBIA       MOCLDY    70  64  81 SE7       29.99S
JEFFERSON CITY MOCLDY    72  63  73 E5        29.98S
ROLLA          MOCLDY    71  60  68 S12       30.00S
SEDALIA        CLOUDY    69  64  84 S10       29.97F
WHITEMAN AFB   MOCLDY    70  65  85 S7        29.95S
WARRENSBURG    CLOUDY    70  64  83 S8        29.95S
OSAGE BEACH    MOCLDY    72  61  68 S6        29.99S

$$
MOZ051-052-059>065-290500-
...EAST CENTRAL MISSOURI...

CITY           SKY/WX    TMP DP  RH WIND       PRES   REMARKS
ST LOUIS INTL  CLOUDY    76  60  57 SE9       30.01F
SPIRIT OF STL  CLOUDY    72  63  73 CALM      30.00F
ST CHARLES     MOCLDY    70  64  81 SE7       30.00F

$$
MOZ072>076-082>087-097>100-106>115-290500-
...SOUTH CENTRAL AND SOUTHEAST MISSOURI...

CITY           SKY/WX    TMP DP  RH WIND       PRES   REMARKS
CAPE GIRARDEAU CLEAR     66  64  93 SE6       30.04S
FARMINGTON     CLOUDY    70  63  78 SE3       30.06S
POPLAR BLUFF   CLOUDY    69  66  90 CALM      30.03S
WEST PLAINS    MOCLDY    69  60  73 S5        30.06S

$$


USA.gov is the U.S. government's official web portal to all federal, state and local government web resources and services.